EHI
0 0 0 1 1 1 0 0 0 0 0 0 0 0 0 0 1 2 3 2 2 4 6 6 8 9 10 9 9 9 7 5 4 4 4 4 3 3 3 3 3 3 3
0 0 0 0 0 0 0 0 0 0 0 0 0 0 0 1 1 2 2 2 2 4 7 7 8 9 10 10 9 8 7 5 4 4 4 3 3 3 3 3 3 3 3
0 1 1 0 0 0 0 0 0 0 0 0 0 0 0 1 2 2 1 1 1 3 6 7 8 9 10 11 10 8 7 6 7 6 5 3 3 3 3 3 3 3 3
2 2 2 1 0 0 0 0 0 0 0 0 0 0 0 1 1 1 0 0 0 2 4 6 6 7 8 9 10 8 6 7 8 8 6 4 4 3 3 3 3 3 3
4 5 4 2 1 1 0 0 0 0 0 0 0 0 0 0 0 0 0 0 0 1 2 3 4 4 4 5 6 5 5 6 7 7 6 6 5 3 2 2 3 3 3
6 7 6 4 4 3 2 1 0 0 0 0 0 0 0 0 0 0 0 0 0 0 1 1 2 2 2 2 3 3 3 4 4 5 5 6 5 3 1 1 1 2 3
7 7 6 5 5 6 4 3 1 1 0 0 0 0 0 0 0 0 0 0 0 0 0 1 1 1 0 1 2 3 3 3 3 3 4 4 4 3 1 0 0 1 2
8 8 6 6 6 6 6 4 2 1 0 0 0 0 0 0 0 0 0 0 0 0 1 1 0 0 0 0 1 1 2 3 3 3 3 3 3 2 2 1 1 0 1
9 9 8 7 6 6 6 4 2 1 0 0 0 0 0 0 0 0 0 0 0 0 0 0 0 0 0 0 0 0 1 1 2 3 3 2 1 1 1 1 1 1 0
8 9 9 8 7 6 6 3 1 0 0 0 0 0 0 0 0 0 0 0 0 0 0 0 0 0 0 0 0 0 0 0 1 1 2 1 0 0 0 1 1 1 1
7 8 9 8 7 6 5 3 1 0 0 0 0 0 0 0 0 0 0 0 0 0 0 0 0 0 0 0 0 0 0 0 0 0 0 0 0 0 0 0 0 0 0
4 6 7 7 7 6 4 1 0 0 0 0 0 0 0 0 0 0 0 0 0 0 0 0 0 0 0 0 0 0 0 0 0 0 0 0 0 0 0 0 0 0 0
2 3 4 5 6 5 3 1 0 0 0 0 0 0 0 0 0 0 0 0 0 0 0 0 0 0 0 0 0 0 0 0 0 0 0 0 0 0 0 0 0 0 0
0 1 1 3 4 4 3 2 1 0 0 0 0 0 0 0 0 0 0 0 0 0 0 0 0 0 0 0 0 0 0 0 0 0 0 0 0 0 0 0 0 0 0
0 0 0 1 2 2 1 2 2 1 0 0 0 0 0 0 0 0 0 0 0 0 0 0 0 0 0 0 0 0 0 0 0 0 0 0 0 0 0 0 0 0 0
0 0 0 0 0 0 0 1 1 1 0 0 0 0 0 0 0 0 0 0 0 0 0 0 0 0 0 0 0 0 0 0 0 0 0 0 0 0 0 0 0 0 0
0 0 0 0 0 0 0 0 0 0 0 0 0 0 0 0 0 0 0 0 0 0 0 0 0 0 0 0 0 0 0 0 0 0 0 0 0 0 0 0 0 0 0
0 0 0 0 0 0 0 0 0 0 0 0 0 0 0 0 0 0 0 0 0 0 0 0 0 0 0 0 0 0 0 0 0 0 0 0 0 0 0 0 0 0 0
0 0 0 0 0 0 0 0 0 0 0 0 0 0 0 0 0 0 0 0 0 0 0 0 0 0 0 0 0 0 0 0 0 0 0 0 0 0 0 0 0 0 0
0 0 0 0 0 0 0 0 0 0 0 0 0 0 0 0 0 0 0 0 0 0 0 0 0 0 0 0 0 0 0 0 0 0 0 0 0 0 0 0 0 0 0
0 0 0 0 0 0 0 0 0 0 0 0 0 0 0 0 0 0 0 0 0 0 0 0 0 0 0 0 0 0 0 0 0 0 0 0 0 0 0 0 0 0 0
0 0 0 0 0 0 0 0 0 0 0 0 0 0 0 0 0 0 0 0 0 0 0 0 0 0 0 0 0 0 0 0 0 0 0 0 0 0 0 0 0 0 0
0 0 0 0 0 0 0 0 0 0 0 0 0 0 0 0 0 0 0 0 0 0 0 0 0 0 0 0 0 0 0 0 0 0 0 0 0 0 0 0 0 0 0
0 0 0 0 0 0 0 0 0 0 0 0 0 0 0 0 0 0 0 0 0 0 0 0 0 0 0 0 0 0 0 0 0 0 0 0 0 0 0 0 0 0 0
0 0 0 0 0 0 0 0 0 0 0 0 0 0 0 0 0 0 0 0 0 0 0 0 0 0 0 0 0 0 0 0 0 0 0 0 0 0 0 0 0 0 0
0 0 0 0 0 0 0 0 0 0 0 0 0 0 0 0 0 0 0 0 0 0 0 0 0 0 0 0 0 0 0 0 0 0 0 0 0 0 0 0 0 0 0
Wind_Speed
1 0 0 0 0 1 1 1 1 2 2 2 1 1 2 3 3 3 3 9 10 10 11 11 11 10 11 11 11 11 11 11 11 11 10 10 10 10 9 9 9 8 8
1 1 0 0 1 1 1 1 2 2 1 1 1 1 1 1 2 3 3 5 9 10 10 10 11 11 11 11 11 11 11 11 11 11 10 10 10 10 9 9 8 8 8
1 1 1 1 0 1 1 1 1 1 1 1 1 1 0 1 2 2 2 2 3 6 8 8 10 10 10 11 11 11 11 11 11 11 11 10 10 10 10 9 9 8 8
1 1 1 0 1 1 0 0 1 0 0 0 1 1 0 1 1 2 1 1 1 2 4 7 8 8 8 9 11 11 11 11 11 11 11 10 10 10 9 9 9 8 8
2 1 1 1 1 1 1 0 0 0 0 0 1 1 1 1 0 1 1 1 1 1 1 3 6 7 7 8 9 10 11 11 11 11 11 10 10 10 9 9 9 8 8
3 2 1 1 1 1 1 1 0 0 1 0 1 2 1 1 1 1 1 1 1 1 1 1 1 2 5 6 8 10 10 11 11 11 11 10 10 9 9 9 8 8 8
3 3 2 2 2 1 1 1 0 0 0 1 1 1 2 2 3 2 1 1 1 1 1 1 1 1 1 4 6 8 9 10 10 10 10 10 10 9 9 9 8 7 7
3 3 2 2 2 1 2 1 1 0 0 1 2 1 1 2 3 3 2 2 2 1 2 2 1 1 1 1 3 7 8 8 8 9 9 10 10 10 9 8 8 8 7
4 3 3 2 2 1 1 2 0 1 0 0 1 2 2 2 0 2 3 3 3 2 2 1 2 2 2 2 2 4 7 7 7 7 7 8 9 9 9 8 8 7 7
4 4 3 3 2 2 2 2 1 0 1 1 0 0 1 2 2 0 1 2 2 2 2 1 2 2 2 2 4 6 6 6 6 7 7 7 7 8 8 8 7 7 7
4 4 3 3 3 2 3 3 2 1 0 1 1 0 0 0 1 2 1 0 1 2 1 1 1 1 1 2 2 4 6 6 6 6 6 6 7 7 7 7 6 6 5
3 4 3 3 3 2 2 2 2 2 1 0 0 1 1 1 2 2 2 1 1 1 1 1 1 1 1 1 3 6 7 6 6 5 6 5 5 6 6 6 6 5 5
2 3 3 3 2 2 2 2 2 2 1 1 0 0 0 1 2 2 3 2 1 0 1 1 1 1 1 1 2 6 6 6 6 5 5 5 5 5 5 5 5 5 5
1 2 3 3 3 3 3 2 2 2 2 1 1 1 0 1 1 2 2 3 2 0 0 0 1 0 0 1 2 3 3 5 5 5 5 4 5 5 5 5 4 4 4
2 3 3 3 3 3 3 2 2 2 2 2 1 1 1 0 0 1 2 3 3 3 2 1 0 0 0 1 2 2 2 4 4 4 4 4 4 4 4 4 4 4 3
3 4 4 4 4 4 3 3 2 2 2 2 1 2 1 1 1 1 1 1 1 2 2 1 1 1 1 1 3 2 2 3 4 4 4 4 4 4 4 4 4 3 3
4 4 4 4 4 4 4 3 3 3 3 3 2 2 2 1 1 1 1 1 1 2 2 1 1 1 1 1 1 1 1 1 2 5 5 5 4 4 3 3 3 3 3
4 4 4 4 4 4 4 4 3 4 3 3 3 3 2 2 2 1 2 2 1 1 3 3 1 1 1 1 2 1 1 1 1 3 5 5 4 4 4 3 4 3 3
4 4 5 5 5 4 4 4 3 3 3 3 2 2 2 2 2 1 2 2 2 2 2 3 2 1 1 1 2 1 1 1 1 2 4 4 4 4 4 4 4 4 5
4 4 4 4 4 4 4 4 4 4 3 3 3 3 2 2 1 1 2 2 2 3 3 4 3 2 1 1 2 1 1 1 0 1 1 2 3 4 5 5 6 6 6
4 4 4 5 5 4 4 4 3 4 3 3 4 4 4 5 4 3 2 2 3 2 3 3 3 2 1 1 1 1 1 1 1 0 1 0 1 1 3 5 7 8 8
4 4 5 5 6 5 7 7 5 4 4 4 4 4 5 6 6 7 6 4 3 3 4 3 2 3 2 1 1 1 2 1 1 1 1 1 1 2 3 3 6 8 8
4 4 4 5 5 6 9 8 8 5 5 4 4 4 5 6 6 5 6 7 6 5 4 4 4 3 3 3 3 2 1 1 2 2 1 1 1 2 3 4 8 9 10
3 3 3 4 4 6 9 9 9 6 5 5 5 5 5 5 6 5 5 5 5 4 3 3 3 3 3 3 3 3 2 1 1 1 2 1 1 2 3 3 6 9 10
3 3 2 3 4 6 8 8 7 5 5 5 5 5 5 5 8 7 6 6 5 4 5 4 2 2 3 3 4 3 2 2 1 1 1 1 1 1 2 2 4 6 8
2 2 3 3 3 4 7 8 7 4 4 4 4 5 6 6 7 7 5 5 4 3 3 4 3 2 1 1 2 3 3 2 1 1 2 1 1 0 2 3 2 2 3
Wind_Direction
99 37 44 327 273 259 245 268 276 259 253 257 250 219 193 200 195 183 190 192 189 193 195 195 199 201 193 187 185 182 178 175 171 167 163 162 159 155 152 148 146 144 142
112 115 137 49 337 312 283 257 259 258 258 252 261 239 192 193 185 190 198 198 196 197 200 198 201 200 195 189 185 183 178 174 171 168 165 161 159 156 154 152 150 148 144
128 139 138 119 273 290 308 318 297 286 283 320 321 285 202 179 184 193 197 194 196 200 198 199 199 198 196 191 188 185 180 174 169 167 163 158 155 155 155 155 152 149 147
113 132 135 165 277 285 345 325 279 277 313 349 339 326 38 142 169 183 188 194 202 206 205 202 199 197 196 190 189 186 182 175 170 166 162 159 157 154 154 155 152 149 148
51 81 87 352 326 340 339 317 242 163 170 338 357 15 20 25 189 171 171 182 193 190 197 200 196 193 194 190 187 184 180 177 171 167 164 163 159 153 151 151 151 150 150
37 49 54 2 357 3 339 333 271 145 161 141 47 37 23 22 34 58 158 142 151 157 147 173 182 184 175 179 185 181 177 174 169 166 163 158 154 154 153 152 150 150 151
34 49 40 12 8 357 320 323 321 125 134 107 87 35 18 35 45 39 29 71 68 68 89 102 105 110 180 172 165 169 169 164 163 162 160 155 151 149 147 147 145 143 144
30 41 37 23 8 0 352 342 5 40 243 140 125 121 11 6 20 24 26 43 39 56 70 72 71 97 99 106 143 148 149 150 153 158 157 154 152 149 146 147 146 143 141
27 24 25 22 6 6 336 323 301 149 220 286 130 146 156 201 327 7 23 38 33 38 48 59 63 70 88 91 99 119 132 136 143 147 148 151 158 159 157 153 150 150 150
24 22 23 19 6 360 343 332 6 334 156 191 310 35 148 167 162 149 358 20 35 35 40 64 63 66 79 90 100 110 117 130 141 146 148 148 152 156 158 161 162 162 159
16 14 17 15 5 2 358 359 356 360 155 177 184 168 82 42 132 152 194 297 26 11 19 38 58 82 88 105 118 124 119 118 127 140 149 155 158 161 163 166 166 164 161
9 6 10 9 6 6 357 351 349 4 21 71 144 166 168 182 187 164 174 171 135 359 12 28 26 54 100 119 143 129 123 120 126 135 142 147 152 157 158 162 166 169 169
10 358 5 1 3 2 2 6 17 17 24 53 81 203 219 227 182 157 146 147 129 50 25 17 355 31 103 97 137 137 134 125 119 123 132 143 154 159 163 163 163 163 162
357 356 4 5 8 11 13 17 25 7 16 19 25 44 17 303 154 150 151 151 140 129 64 280 335 13 96 134 134 131 138 133 127 124 121 137 154 159 156 147 144 148 156
14 13 13 15 13 17 14 22 29 12 16 21 23 41 44 9 54 115 136 152 155 167 201 210 215 244 125 126 142 129 140 144 138 136 131 128 134 146 145 136 134 136 137
21 24 21 21 20 17 13 23 21 17 27 16 28 40 29 28 66 94 119 117 127 151 162 185 195 168 169 158 153 137 165 167 167 160 150 141 136 137 140 145 149 158 162
23 28 24 26 22 16 11 22 21 24 30 28 28 37 24 44 79 87 99 112 112 128 137 131 78 104 122 150 122 125 147 162 181 175 168 162 160 159 163 166 175 183 188
24 28 28 27 24 21 15 21 23 27 35 33 27 33 27 50 53 66 87 96 103 115 132 139 116 113 132 148 123 125 150 167 162 176 179 181 183 186 191 199 211 215 214
28 28 31 28 22 19 17 15 21 31 37 31 29 38 40 59 50 54 76 89 89 90 104 128 126 118 95 113 101 76 81 56 175 180 187 196 200 205 209 219 229 234 233
35 35 35 32 25 21 18 15 24 34 33 28 28 42 47 63 81 85 89 100 103 94 102 113 115 102 77 76 93 89 46 26 346 183 186 187 201 219 226 228 229 230 233
44 41 41 33 23 23 18 19 26 39 38 32 31 39 44 48 60 71 96 114 121 116 115 114 116 102 89 86 97 111 108 50 355 251 118 242 201 227 237 236 234 233 233
42 41 39 37 28 21 19 32 43 47 44 46 39 32 37 42 43 53 63 76 107 134 138 128 132 134 140 134 123 120 111 87 326 278 149 253 191 232 242 232 236 236 236
48 43 36 37 29 16 28 36 42 55 51 49 51 45 43 39 38 47 49 52 56 74 115 137 141 158 162 177 154 133 142 161 222 234 141 252 239 243 250 242 236 238 240
48 44 37 35 32 18 29 40 46 52 51 47 49 55 57 38 36 50 62 56 50 52 72 112 147 169 175 176 169 165 172 169 296 271 148 198 254 255 264 258 247 242 242
45 35 35 38 34 12 22 39 50 49 50 41 41 45 52 47 36 52 67 64 54 37 51 73 114 152 174 178 163 121 105 89 24 298 215 168 247 282 286 276 272 256 245
51 40 36 30 32 18 17 34 49 57 52 38 31 29 37 42 38 47 64 69 58 26 32 38 42 30 52 168 179 165 158 145 161 269 253 169 226 209 307 288 276 276 258